BUGSAT-1 (TITA) (40014 NORAD) Tracking and Keplerian Element Data

This shows tracking and keplerian element data for the satellite.

Feedback or suggestion? Click here.




ElementValue
Catalog40014
NameBUGSAT-1 (TITA)
Epoch Orbit22231
Epoch Day198.82213225
Epoch Year2018
RAAN134.7431
Inclination97.9782
Eccentricity0.0033065
Argument of Perigee93.0927
Mean Anonmoly267.4088
Mean Motion14.95067993
Decay Rate-2.94E-06
L11 40014U 14033E 18198.82213225 -.00000294 00000-0 -20912-4 0 9997
L22 40014 97.9782 134.7431 0033065 93.0927 267.4088 14.95067993222311

Live tracking and technical data element details for BUGSAT-1 (TITA) (NORAD 40014). BUGSAT-1 (TITA) can be tracked NOW for your location showing map with azimuth and elevation plus other details from your city location.

Track the satellite on the map from your city or location and see movement details for azimuth, elevation, latitude, longitude, range, height, and movement on the map or in text.







IsCatalogInMostPopularTable: catalog: 40014, numindb: 52
Update: records affected: 1



GetName: 40014 BUGSAT-1 (TITA)

Hit Count: updated at: Thu, 19 Jul 2018 21:22:07 GMT